Terminal Aerodrome Forecast
Issued by NWS

Home | Current Version | Previous Version | Text Only | Print | Product List | Glossary On
Versions: 1 2 3 4 5 6 7 8 9 10 11 12 13 14 15
000
FTUS45 KABQ 290500
TAFROW
TAF
KROW 290520Z 2906/3006 15010KT P6SM VCTS SCT050CB BKN090
      TEMPO 2906/2910 VRB15G25KT 4SM TSRA BKN040CB
     FM291000 15008KT 6SM RA BR BKN030
     FM291500 15008KT P6SM VCSH SCT050 BKN090
     FM291900 18010G18KT P6SM VCSH SCT060 SCT110
     FM300000 21010KT P6SM VCTS SCT060CB BKN100
     FM300200 15005KT P6SM SCT130=

USA.gov is the U.S. government's official web portal to all federal, state and local government web resources and services.